Location: Caltech
(34.1382°N, 118.1253°W)
Time: 12:32:52
(UTC-08:00)

Iridium 94 - Visible Passes

Search period start: 02 March 2015 00:00
Search period end: 12 March 2015 01:00
Orbit: 777 x 778 km, 86.4° (Epoch: 02 March)

Date Brightness Start Highest point End Pass type
(mag) Time Alt. Az. Time Alt. Az. Time Alt. Az.
02 Mar 6.0 05:26:48 10° S 05:31:57 66° E 05:37:08 10° N visible
03 Mar 7.4 04:53:57 10° SSE 04:58:32 33° E 05:03:13 10° NNE visible
04 Mar 8.4 04:21:57 10° ESE 04:25:11 18° E 04:28:39 10° NE visible
04 Mar 8.6 18:16:13 10° NW 18:19:46 18° W 18:23:06 10° WSW visible
05 Mar 5.5 05:26:49 10° S 05:32:02 83° W 05:37:17 10° N visible
06 Mar 6.5 04:53:34 10° SSE 04:58:33 50° E 05:03:36 10° NNE visible
07 Mar 7.7 04:20:59 10° SE 04:25:10 26° E 04:29:29 10° NNE visible
07 Mar 9.0 18:17:43 10° WNW 18:19:44 12° W 18:21:22 10° W visible
08 Mar 8.6 04:49:36 10° ESE 04:51:51 13° E 04:54:25 10° NE visible
08 Mar 5.6 06:27:03 10° SSW 06:32:08 55° W 06:37:16 10° N visible
09 Mar 5.7 05:53:26 10° S 05:58:37 76° E 06:03:50 10° N visible
10 Mar 7.0 05:20:25 10° SSE 05:25:10 38° E 05:30:01 10° NNE visible
11 Mar 8.0 04:48:12 10° SE 04:51:49 20° E 04:55:38 10° NE visible
11 Mar 6.0 06:27:30 10° SSW 06:32:19 37° W 06:37:07 10° NNW visible
